Montrose, CO

5:04 AM MDT on August 17, 2017 (GMT -0600)
Montrose Regional

Weather History for KMTJ - July, 2014

Change the Weather History Date:

Thursday, July 10, 2014

  Actual Average Record
Temperature  
Mean Temperature 77 °F 74 °F  
Max Temperature 90 °F 90 °F 117 °F (2007)
Min Temperature 64 °F 57 °F 51 °F (1997)
Degree Days  
Heating Degree Days 0 0  
Month to date heating degree days 0 0  
Since 1 June heating degree days 18 39  
Since 1 July heating degree days 0 0  
Cooling Degree Days 12 9  
Month to date cooling degree days 114 82  
Year to date cooling degree days 295 234  
Since 1 June cooling degree days 254 217  
Growing Degree Days 28 (Base 50)    
Moisture  
Dew Point 49 °F    
Average Humidity 38    
Maximum Humidity 52    
Minimum Humidity 23    
Precipitation  
Precipitation 0.06 in 0.03 in 0.27 in (2011)
Month to date precipitation 0.06 0.25  
Year to date precipitation 3.34 5.32  
Sea Level Pressure  
Sea Level Pressure 29.91 in    
Wind  
Wind Speed 9 mph (SSE)    
Max Wind Speed 32 mph    
Max Gust Speed 44 mph    
Visibility 10 miles    
Events Rain , Thunderstorm    
T = Trace of Precipitation, MM = Missing Value Source: NWS Daily Summary

Daily Weather History Graph

Daily Weather History Graph

Search for Another Location

Airport or City:

Trip Planner

Search our weather history database for the weather conditions in past years. The results will help you decide how hot, cold, wet, or windy it might be!

Date:

Astronomy

Jul. 10, 2014 Rise Set
Actual Time 5:56 AM MDT 8:37 PM MDT
Civil Twilight 5:25 AM MDT 9:08 PM MDT
Nautical Twilight 4:46 AM MDT 9:47 PM MDT
Astronomical Twilight 4:02 AM MDT 10:31 PM MDT
Moon 6:54 PM MDT (7/10) 4:09 AM MDT (7/10)
Length of Visible Light 15h 43m
Length of Day
14h 41m
Waxing Gibbous, 96% of the Moon is Illuminated
Jul 10
Waxing Gibbous
Jul 12
Full
Jul 18
Last Quarter
Jul 26
New
Aug 3
First Quarter

Hourly Weather History & Observations

Time (MDT) Temp. Dew Point Humidity Pressure Visibility Wind Dir Wind Speed Gust Speed Precip Events Conditions
12:53 AM 71.1 °F 45.0 °F 39% 29.88 in 10.0 mi East 4.6 mph - N/A   Clear
2:53 AM 66.0 °F 48.0 °F 52% 29.90 in 10.0 mi East 5.8 mph - N/A   Mostly Cloudy
4:53 AM 66.0 °F 45.0 °F 47% 29.92 in 10.0 mi SE 8.1 mph - N/A   Overcast
5:53 AM 66.0 °F 45.0 °F 47% 29.93 in 10.0 mi SSE 9.2 mph - N/A   Mostly Cloudy
7:53 AM 71.1 °F 46.9 °F 42% 29.94 in 10.0 mi ESE 9.2 mph - N/A   Clear
8:53 AM 75.9 °F 48.0 °F 37% 29.93 in 10.0 mi East 9.2 mph - N/A   Clear
9:53 AM 80.1 °F 48.0 °F 32% 29.91 in 10.0 mi Variable 3.5 mph - N/A   Clear
10:53 AM 82.0 °F 48.0 °F 30% 29.90 in 10.0 mi Variable 6.9 mph - N/A   Clear
11:53 AM 84.9 °F 48.0 °F 28% 29.87 in 10.0 mi North 4.6 mph - N/A   Clear
12:53 PM 88.0 °F 46.9 °F 24% 29.83 in 10.0 mi NNW 10.4 mph - N/A   Clear
1:53 PM 90.0 °F 46.0 °F 22% 29.80 in 10.0 mi NW 12.7 mph - N/A   Clear
2:53 PM 90.0 °F 46.0 °F 22% 29.78 in 10.0 mi West 6.9 mph - N/A Thunderstorm Scattered Clouds
3:08 PM 86.0 °F 48.0 °F 27% 30.06 in 10.0 mi SW 11.5 mph - N/A   Partly Cloudy
3:53 PM 90.0 °F 46.9 °F 23% 29.78 in 10.0 mi North 5.8 mph - N/A   Clear
4:53 PM 87.1 °F 48.9 °F 27% 29.76 in 10.0 mi North 6.9 mph - N/A   Clear
5:53 PM 90.0 °F 46.0 °F 22% 29.75 in 10.0 mi SE 9.2 mph - N/A   Clear
6:44 PM 84.0 °F 50.0 °F 31% 30.03 in 10.0 mi Calm Calm - 0.00 in Rain , Thunderstorm Light Thunderstorms and Rain
6:53 PM 84.0 °F 48.0 °F 28% 29.77 in 10.0 mi Calm Calm - 0.00 in Thunderstorm Thunderstorm
7:07 PM 84.9 °F 48.0 °F 28% 30.04 in 10.0 mi Calm Calm - N/A Thunderstorm Partly Cloudy
7:21 PM 84.9 °F 46.9 °F 27% 30.04 in 10.0 mi Calm Calm - N/A Thunderstorm Thunderstorm
7:36 PM 84.0 °F 51.1 °F 32% 30.06 in 10.0 mi West 4.6 mph - N/A Thunderstorm Partly Cloudy
7:43 PM 82.9 °F 50.0 °F 32% 30.07 in 10.0 mi West 3.5 mph - N/A Thunderstorm Thunderstorm
7:53 PM 82.0 °F 48.9 °F 31% 29.79 in 10.0 mi SE 15.0 mph - N/A Thunderstorm Thunderstorm
8:53 PM 79.0 °F 50.0 °F 36% 29.80 in 10.0 mi SSE 10.4 mph - N/A   Partly Cloudy
9:53 PM 78.1 °F 52.0 °F 40% 29.82 in 10.0 mi ESE 10.4 mph - N/A   Scattered Clouds
10:53 PM 75.0 °F 54.0 °F 48% 29.85 in 9.0 mi SSW 26.5 mph 34.5 mph 0.00 in Rain , Thunderstorm Light Thunderstorms and Rain
11:09 PM 75.0 °F 50.0 °F 41% 30.11 in 6.0 mi WNW 20.7 mph 31.1 mph 0.06 in Rain Rain
11:19 PM 75.0 °F 50.0 °F 41% 30.11 in 10.0 mi NE 9.2 mph - 0.06 in Rain , Thunderstorm Light Thunderstorms and Rain
11:37 PM 73.0 °F 55.0 °F 53% 30.13 in 10.0 mi South 10.4 mph - 0.06 in   Mostly Cloudy
11:53 PM 71.1 °F 57.0 °F 61% 29.85 in 10.0 mi South 9.2 mph - 0.06 in   Mostly Cloudy